Weather in Semenivka

Ukraine / Poltava Region     49˚35′47″N   33˚11′11″E
temp.,
°C
wind,
m/s
gust,
m/s
humid.,
%
clouds,
%
prec.,
mm/h
press.,
hPa
HPBL,
m
3 december, thu
thu323:00−1˚ese589690 0.4 1029327
02:00−2˚ese479593 1.0 1028308
05:00−2˚ese369799 0.4 1028317
08:00−2˚e369799 0.8 1028216
11:00ese469696 0.4 1028374
14:00ese469598 0.6 1027339
17:00+1˚ese5896100 0.0 1027328
20:00ese5989100 0.0 1026309
4 december, fri
fri423:00ese61187100 0.0 1027327
02:00−1˚ese5109374 0.0 1026271
05:00se6119581 0.0 1026357
08:00+1˚se7109490 0.0 1027433
11:00+1˚ese61088100 0.0 1026427
14:00+1˚ese5988100 0.0 1027429
17:00ese6138970 0.0 1027423
20:00se6139159 0.0 1027458
5 december, sat
sat523:00+1˚se71186100 0.0 1028541
02:00−1˚ese6129086 0.0 1029417
05:00−1˚ese5119118 0.0 1029425
08:00+1˚ese6108557 0.0 1030579
11:00+1˚ese6981100 0.0 1030622
14:00+1˚ese597883 0.0 1030514
17:00ese511810 0.0 1031355
20:00−1˚ese612750 0.0 1032355
6 december, sun
sun623:00−3˚ese511640 0.0 1033348
02:00−3˚ese511620 0.0 1034332
05:00−4˚e510620 0.0 1034333
08:00−4˚e511590 0.0 1034344
11:00−2˚e610490 0.0 1034433
14:00−1˚e611480 0.0 1033519
17:00−3˚e613570 0.0 1034430
20:00−4˚e613610 0.0 1034432
7 december, mon
mon723:00−4˚e612720 0.0 1035437
02:00−5˚e612730 0.0 1035442
05:00−6˚e612700 0.0 1034440
08:00−6˚e614670 0.0 1035451
11:00−3˚e712600 0.0 1034527
14:00−2˚e712530 0.0 1033653
17:00−4˚e614600 0.0 1033575
20:00−4˚e614620 0.0 1033533